Wetterdaten: Woche 18.12.17 - 24.12.17 (KW51)
Datum Zeit Temp. A. Pool Temp. Feuchte A. Luftdruck Regen Wind Richtung Sonnenschein ET UV Solar Taupunkt Windchill Windben Empfang
18.12.2017 00:00 -0,1 C 3,9 C 93 % 1024,7 hPa 0,0 l/m 16,1 km/h (3 Bft) W-SW 0,00 h 0,000 mm 0,0 UV-I 0 W/m -1,2 C -7,7 C 21,7 km/h (4 Bft) 98,61 %
18.12.2017 01:00 -0,2 C 3,9 C 94 % 1024,6 hPa 0,0 l/m 15,7 km/h (3 Bft) SW 0,00 h 0,000 mm 0,0 UV-I 0 W/m -1,2 C -7,6 C 22,0 km/h (4 Bft) 96,24 %
18.12.2017 02:00 -0,2 C 3,9 C 92 % 1024,4 hPa 0,0 l/m 16,8 km/h (3 Bft) SW 0,00 h 0,000 mm 0,0 UV-I 0 W/m -1,3 C -8,2 C 23,2 km/h (4 Bft) 97,65 %
18.12.2017 03:00 -0,2 C 3,9 C 91 % 1024,1 hPa 0,0 l/m 14,8 km/h (3 Bft) W-SW 0,00 h 0,000 mm 0,0 UV-I 0 W/m -1,5 C -7,0 C 20,3 km/h (4 Bft) 99,09 %
18.12.2017 04:00 -0,3 C 3,9 C 91 % 1024,0 hPa 0,0 l/m 12,5 km/h (3 Bft) SW 0,00 h 0,000 mm 0,0 UV-I 0 W/m -1,5 C -5,4 C 17,2 km/h (3 Bft) 97,77 %
18.12.2017 05:00 -0,2 C 3,9 C 90 % 1023,9 hPa 0,0 l/m 9,9 km/h (2 Bft) W-SW 0,00 h 0,000 mm 0,0 UV-I 0 W/m -1,7 C -3,5 C 14,7 km/h (3 Bft) 97,04 %
18.12.2017 06:00 -0,2 C 3,9 C 88 % 1023,8 hPa 0,0 l/m 6,9 km/h (2 Bft) W-SW 0,00 h 0,000 mm 0,0 UV-I 0 W/m -2,0 C -1,1 C 11,0 km/h (2 Bft) 97,27 %
18.12.2017 07:00 -0,3 C 3,9 C 88 % 1024,0 hPa 0,0 l/m 5,0 km/h (1 Bft) W-SW 0,00 h 0,000 mm 0,0 UV-I 5 W/m -2,1 C -0,4 C 7,9 km/h (2 Bft) 99,22 %
18.12.2017 08:00 -0,5 C 3,9 C 88 % 1024,2 hPa 0,0 l/m 2,8 km/h (1 Bft) SW 0,00 h 0,000 mm 0,0 UV-I 22 W/m -2,3 C -0,5 C 4,7 km/h (1 Bft) 96,98 %
18.12.2017 09:00 -0,4 C 3,9 C 87 % 1024,4 hPa 0,0 l/m 1,7 km/h (1 Bft) W-SW 0,90 h 0,000 mm 0,0 UV-I 165 W/m -2,2 C -0,4 C 3,0 km/h (1 Bft) 97,03 %
18.12.2017 10:00 -0,0 C 3,9 C 84 % 1024,7 hPa 0,2 l/m 1,2 km/h (1 Bft) W-SW 0,37 h 0,051 mm 0,4 UV-I 129 W/m -2,3 C -0,0 C 2,1 km/h (1 Bft) 98,11 %
18.12.2017 11:00 0,4 C 3,9 C 83 % 1024,5 hPa 0,2 l/m 2,4 km/h (1 Bft) W-SW 0,60 h 0,051 mm 0,5 UV-I 194 W/m -2,2 C 0,4 C 3,5 km/h (1 Bft) 99,37 %
18.12.2017 12:00 0,9 C 3,9 C 81 % 1024,3 hPa 0,0 l/m 2,6 km/h (1 Bft) O 0,00 h 0,076 mm 0,0 UV-I 151 W/m -2,1 C 0,9 C 3,9 km/h (1 Bft) 98,02 %
18.12.2017 13:00 0,6 C 3,9 C 84 % 1024,3 hPa 0,0 l/m 3,1 km/h (1 Bft) N-NO 0,30 h 0,051 mm 0,0 UV-I 132 W/m -1,7 C 0,6 C 6,0 km/h (2 Bft) 99,03 %
18.12.2017 14:00 0,1 C 3,9 C 86 % 1024,6 hPa 0,0 l/m 3,1 km/h (1 Bft) N-NO 0,35 h 0,050 mm 0,0 UV-I 99 W/m -1,9 C 0,2 C 5,0 km/h (1 Bft) 95,36 %
18.12.2017 15:00 -0,3 C 3,9 C 88 % 1025,2 hPa 0,0 l/m 2,2 km/h (1 Bft) N-NO 0,07 h 0,025 mm 0,0 UV-I 29 W/m -2,0 C -0,3 C 3,3 km/h (1 Bft) 97,32 %
18.12.2017 16:00 -0,9 C 3,9 C 90 % 1025,5 hPa 0,0 l/m 2,1 km/h (1 Bft) N-NO 0,00 h 0,000 mm 0,0 UV-I 7 W/m -2,3 C -0,9 C 2,9 km/h (1 Bft) 96,88 %
18.12.2017 17:00 -2,1 C 3,9 C 93 % 1025,9 hPa 0,0 l/m 1,0 km/h (0 Bft) N-NO 0,00 h 0,000 mm 0,0 UV-I 0 W/m -3,1 C -2,1 C 1,8 km/h (1 Bft) 96,88 %
18.12.2017 18:00 -2,2 C 3,9 C 94 % 1026,5 hPa 0,0 l/m 2,7 km/h (1 Bft) O-NO 0,00 h 0,000 mm 0,0 UV-I 0 W/m -3,0 C -2,2 C 3,8 km/h (1 Bft) 98,04 %
18.12.2017 19:00 -3,0 C 3,9 C 95 % 1027,2 hPa 0,0 l/m 1,3 km/h (1 Bft) O-NO 0,00 h 0,000 mm 0,0 UV-I 0 W/m -3,7 C -3,0 C 1,9 km/h (1 Bft) 95,87 %
18.12.2017 20:00 -3,5 C 3,9 C 96 % 1027,9 hPa 0,0 l/m 0,1 km/h (0 Bft) O-NO 0,00 h 0,000 mm 0,0 UV-I 0 W/m -4,1 C -3,5 C 0,2 km/h (0 Bft) 97,97 %
18.12.2017 21:00 -3,9 C 3,9 C 96 % 1028,5 hPa 0,0 l/m 0,1 km/h (0 Bft) O-NO 0,00 h 0,000 mm 0,0 UV-I 0 W/m -4,5 C -3,9 C 0,4 km/h (0 Bft) 96,45 %
18.12.2017 22:00 -3,2 C 3,9 C 96 % 1029,1 hPa 0,0 l/m 0,5 km/h (0 Bft) O-NO 0,00 h 0,000 mm 0,0 UV-I 0 W/m -3,7 C -3,2 C 1,3 km/h (1 Bft) 97,83 %
18.12.2017 23:00 -3,4 C 3,9 C 96 % 1029,5 hPa 0,0 l/m 0,9 km/h (0 Bft) O-NO 0,00 h 0,000 mm 0,0 UV-I 0 W/m -3,9 C -3,4 C 1,8 km/h (1 Bft) 96,96 %
19.12.2017 00:00 -3,7 C 3,9 C 96 % 1029,7 hPa 0,0 l/m 1,2 km/h (1 Bft) W-SW 0,00 h 0,000 mm 0,0 UV-I 0 W/m -4,2 C -3,7 C 2,5 km/h (1 Bft) 97,25 %
19.12.2017 01:00 -4,0 C 3,9 C 96 % 1030,2 hPa 0,0 l/m 1,7 km/h (1 Bft) SW 0,00 h 0,000 mm 0,0 UV-I 0 W/m -4,6 C -4,0 C 3,1 km/h (1 Bft) 96,16 %
19.12.2017 02:00 -4,1 C 3,9 C 96 % 1030,9 hPa 0,0 l/m 2,5 km/h (1 Bft) W 0,00 h 0,000 mm 0,0 UV-I 0 W/m -4,7 C -4,1 C 3,8 km/h (1 Bft) 97,75 %
19.12.2017 03:00 -4,3 C 3,9 C 96 % 1031,3 hPa 0,0 l/m 1,8 km/h (1 Bft) O-SO 0,00 h 0,000 mm 0,0 UV-I 0 W/m -4,8 C -4,3 C 3,1 km/h (1 Bft) 96,23 %
19.12.2017 04:00 -4,0 C 3,9 C 96 % 1031,4 hPa 0,0 l/m 1,8 km/h (1 Bft) SW 0,00 h 0,000 mm 0,0 UV-I 0 W/m -4,6 C -4,0 C 3,4 km/h (1 Bft) 97,68 %
19.12.2017 05:00 -4,5 C 3,9 C 96 % 1031,7 hPa 0,0 l/m 1,2 km/h (1 Bft) W-SW 0,00 h 0,000 mm 0,0 UV-I 0 W/m -5,0 C -4,5 C 2,5 km/h (1 Bft) 97,10 %
19.12.2017 06:00 -4,4 C 3,9 C 96 % 1032,4 hPa 0,0 l/m 1,4 km/h (1 Bft) O-SO 0,00 h 0,000 mm 0,0 UV-I 0 W/m -5,0 C -4,4 C 2,6 km/h (1 Bft) 97,46 %
19.12.2017 07:00 -4,5 C 3,9 C 96 % 1033,1 hPa 0,0 l/m 3,7 km/h (1 Bft) O-SO 0,00 h 0,000 mm 0,0 UV-I 6 W/m -5,1 C -4,5 C 5,4 km/h (1 Bft) 96,88 %
19.12.2017 08:00 -5,0 C 3,9 C 95 % 1033,6 hPa 0,0 l/m 2,2 km/h (1 Bft) SO 0,05 h 0,000 mm 0,0 UV-I 26 W/m -5,6 C -5,0 C 3,9 km/h (1 Bft) 96,88 %
19.12.2017 09:00 -4,4 C 3,9 C 96 % 1033,9 hPa 0,0 l/m 0,9 km/h (0 Bft) S-SW 0,00 h 0,000 mm 0,0 UV-I 76 W/m -4,9 C -4,4 C 1,7 km/h (1 Bft) 97,03 %
19.12.2017 10:00 -3,8 C 3,9 C 96 % 1034,3 hPa 0,0 l/m 0,6 km/h (0 Bft) O 0,00 h 0,025 mm 0,0 UV-I 121 W/m -4,3 C -3,8 C 1,5 km/h (1 Bft) 97,39 %
19.12.2017 11:00 -3,4 C 3,9 C 96 % 1034,1 hPa 0,0 l/m 0,7 km/h (0 Bft) S 0,08 h 0,025 mm 0,0 UV-I 157 W/m -3,9 C -3,4 C 2,1 km/h (1 Bft) 96,38 %
19.12.2017 12:00 -2,8 C 3,9 C 96 % 1034,0 hPa 0,0 l/m 1,0 km/h (0 Bft) S-SO 0,17 h 0,051 mm 0,0 UV-I 159 W/m -3,3 C -2,8 C 1,9 km/h (1 Bft) 96,66 %
19.12.2017 13:00 -2,4 C 3,9 C 97 % 1033,9 hPa 0,0 l/m 0,5 km/h (0 Bft) N 0,30 h 0,051 mm 0,0 UV-I 140 W/m -2,8 C -2,4 C 1,3 km/h (1 Bft) 97,10 %
19.12.2017 14:00 -2,1 C 3,9 C 97 % 1033,2 hPa 0,0 l/m 1,7 km/h (1 Bft) SW 0,43 h 0,051 mm 0,0 UV-I 111 W/m -2,6 C -2,1 C 3,3 km/h (1 Bft) 96,88 %
19.12.2017 15:00 -1,8 C 3,9 C 96 % 1033,1 hPa 0,0 l/m 1,4 km/h (1 Bft) SW 0,12 h 0,025 mm 0,0 UV-I 37 W/m -2,4 C -1,8 C 3,0 km/h (1 Bft) 96,59 %
19.12.2017 16:00 -1,8 C 3,9 C 96 % 1033,2 hPa 0,0 l/m 0,9 km/h (0 Bft) N-NW 0,00 h 0,000 mm 0,0 UV-I 6 W/m -2,4 C -1,8 C 2,5 km/h (1 Bft) 96,08 %
19.12.2017 17:00 -1,7 C 3,9 C 96 % 1033,5 hPa 0,0 l/m 1,7 km/h (1 Bft) N-NW 0,00 h 0,000 mm 0,0 UV-I 0 W/m -2,2 C -1,7 C 2,9 km/h (1 Bft) 97,90 %
19.12.2017 18:00 -1,3 C 3,9 C 95 % 1033,8 hPa 0,0 l/m 2,1 km/h (1 Bft) N-NW 0,00 h 0,000 mm 0,0 UV-I 0 W/m -2,0 C -1,3 C 3,2 km/h (1 Bft) 96,16 %
19.12.2017 19:00 -1,1 C 3,9 C 95 % 1033,7 hPa 0,0 l/m 3,5 km/h (1 Bft) SW 0,00 h 0,000 mm 0,0 UV-I 0 W/m -1,8 C -1,1 C 4,9 km/h (1 Bft) 97,25 %
19.12.2017 20:00 -0,9 C 3,9 C 96 % 1033,0 hPa 0,0 l/m 8,3 km/h (2 Bft) W-SW 0,00 h 0,000 mm 0,0 UV-I 0 W/m -1,5 C -2,9 C 11,9 km/h (2 Bft) 96,01 %
19.12.2017 21:00 -0,6 C 3,9 C 96 % 1033,1 hPa 0,0 l/m 6,6 km/h (2 Bft) W-SW 0,00 h 0,000 mm 0,0 UV-I 0 W/m -1,1 C -1,4 C 9,4 km/h (2 Bft) 98,26 %
19.12.2017 22:00 -0,4 C 3,9 C 96 % 1033,1 hPa 0,0 l/m 9,6 km/h (2 Bft) W-SW 0,00 h 0,000 mm 0,0 UV-I 0 W/m -0,9 C -3,4 C 13,5 km/h (3 Bft) 95,72 %
19.12.2017 23:00 -0,4 C 3,9 C 96 % 1033,4 hPa 0,0 l/m 7,6 km/h (2 Bft) SW 0,00 h 0,000 mm 0,0 UV-I 0 W/m -0,9 C -1,6 C 11,3 km/h (2 Bft) 97,75 %
20.12.2017 00:00 -0,4 C 3,9 C 97 % 1033,4 hPa 0,0 l/m 7,5 km/h (2 Bft) SW 0,00 h 0,000 mm 0,0 UV-I 0 W/m -0,8 C -1,5 C 11,0 km/h (2 Bft) 96,81 %
20.12.2017 01:00 -0,2 C 3,9 C 97 % 1033,1 hPa 0,0 l/m 8,2 km/h (2 Bft) SW 0,00 h 0,000 mm 0,0 UV-I 0 W/m -0,6 C -2,0 C 12,3 km/h (3 Bft) 97,61 %
20.12.2017 02:00 -0,2 C 3,9 C 97 % 1033,1 hPa 0,0 l/m 8,4 km/h (2 Bft) SW 0,00 h 0,000 mm 0,0 UV-I 0 W/m -0,6 C -2,1 C 12,0 km/h (2 Bft) 96,30 %
20.12.2017 03:00 -0,1 C 3,9 C 97 % 1033,1 hPa 0,0 l/m 8,0 km/h (2 Bft) W-SW 0,00 h 0,000 mm 0,0 UV-I 0 W/m -0,5 C -1,8 C 12,2 km/h (2 Bft) 97,03 %
20.12.2017 04:00 -0,0 C 3,9 C 96 % 1033,2 hPa 0,0 l/m 7,1 km/h (2 Bft) W-SW 0,00 h 0,000 mm 0,0 UV-I 0 W/m -0,5 C -0,7 C 10,5 km/h (2 Bft) 97,03 %
20.12.2017 05:00 0,1 C 3,9 C 96 % 1033,3 hPa 0,0 l/m 6,4 km/h (2 Bft) W-SW 0,00 h 0,000 mm 0,0 UV-I 0 W/m -0,5 C -0,3 C 9,5 km/h (2 Bft) 97,10 %
20.12.2017 06:00 0,1 C 3,9 C 96 % 1033,7 hPa 0,0 l/m 5,1 km/h (1 Bft) W-SW 0,00 h 0,000 mm 0,0 UV-I 0 W/m -0,5 C 0,0 C 7,5 km/h (2 Bft) 96,96 %
20.12.2017 07:00 0,0 C 3,9 C 96 % 1034,0 hPa 0,0 l/m 3,3 km/h (1 Bft) W 0,00 h 0,000 mm 0,0 UV-I 6 W/m -0,5 C 0,0 C 4,6 km/h (1 Bft) 97,17 %
20.12.2017 08:00 0,1 C 3,9 C 96 % 1034,4 hPa 0,0 l/m 3,1 km/h (1 Bft) W-SW 0,02 h 0,000 mm 0,0 UV-I 17 W/m -0,4 C 0,1 C 4,3 km/h (1 Bft) 97,53 %
20.12.2017 09:00 0,3 C 3,9 C 96 % 1034,8 hPa 0,0 l/m 4,4 km/h (1 Bft) W-SW 0,00 h 0,000 mm 0,0 UV-I 47 W/m -0,2 C 0,3 C 6,1 km/h (2 Bft) 94,27 %
20.12.2017 10:00 0,7 C 3,9 C 96 % 1035,2 hPa 0,0 l/m 2,7 km/h (1 Bft) W 0,00 h 0,025 mm 0,0 UV-I 76 W/m 0,1 C 0,7 C 3,7 km/h (1 Bft) 98,33 %
20.12.2017 11:00 1,0 C 3,9 C 95 % 1034,9 hPa 0,4 l/m 2,1 km/h (1 Bft) W 0,00 h 0,025 mm 0,0 UV-I 103 W/m 0,3 C 1,0 C 3,4 km/h (1 Bft) 96,74 %
20.12.2017 12:00 1,3 C 3,9 C 95 % 1034,5 hPa 0,8 l/m 3,1 km/h (1 Bft) W 0,00 h 0,025 mm 0,5 UV-I 128 W/m 0,5 C 1,3 C 4,9 km/h (1 Bft) 97,32 %
20.12.2017 13:00 1,2 C 3,9 C 95 % 1034,2 hPa 0,6 l/m 1,7 km/h (1 Bft) W 0,00 h 0,051 mm 0,0 UV-I 77 W/m 0,6 C 1,2 C 2,6 km/h (1 Bft) 96,30 %
20.12.2017 14:00 1,3 C 3,9 C 95 % 1033,9 hPa 0,4 l/m 2,7 km/h (1 Bft) W 0,00 h 0,025 mm 0,0 UV-I 55 W/m 0,6 C 1,3 C 3,9 km/h (1 Bft) 98,26 %
20.12.2017 15:00 1,2 C 3,9 C 95 % 1034,0 hPa 0,0 l/m 2,9 km/h (1 Bft) W 0,00 h 0,025 mm 0,0 UV-I 20 W/m 0,6 C 1,2 C 3,9 km/h (1 Bft) 95,65 %
20.12.2017 16:00 1,1 C 3,9 C 95 % 1034,4 hPa 0,0 l/m 3,6 km/h (1 Bft) W 0,00 h 0,000 mm 0,0 UV-I 5 W/m 0,4 C 1,1 C 5,7 km/h (1 Bft) 97,46 %
20.12.2017 17:00 1,1 C 3,9 C 95 % 1034,8 hPa 0,0 l/m 3,5 km/h (1 Bft) W 0,00 h 0,000 mm 0,0 UV-I 0 W/m 0,3 C 1,1 C 5,6 km/h (1 Bft) 96,81 %
20.12.2017 18:00 1,1 C 3,9 C 94 % 1034,9 hPa 0,0 l/m 5,1 km/h (1 Bft) W-SW 0,00 h 0,000 mm 0,0 UV-I 0 W/m 0,2 C 1,1 C 7,3 km/h (2 Bft) 97,39 %
20.12.2017 19:00 1,3 C 3,9 C 94 % 1035,3 hPa 0,0 l/m 6,0 km/h (2 Bft) SW 0,00 h 0,000 mm 0,0 UV-I 0 W/m 0,3 C 1,1 C 8,6 km/h (2 Bft) 96,52 %
20.12.2017 20:00 1,2 C 3,9 C 94 % 1035,5 hPa 0,0 l/m 4,6 km/h (1 Bft) W 0,00 h 0,000 mm 0,0 UV-I 0 W/m 0,4 C 1,2 C 6,7 km/h (2 Bft) 98,33 %
20.12.2017 21:00 1,0 C 3,9 C 96 % 1035,5 hPa 0,0 l/m 3,1 km/h (1 Bft) W 0,00 h 0,000 mm 0,0 UV-I 0 W/m 0,4 C 1,0 C 4,3 km/h (1 Bft) 96,08 %
20.12.2017 22:00 0,9 C 3,9 C 97 % 1035,4 hPa 0,0 l/m 4,3 km/h (1 Bft) W 0,00 h 0,000 mm 0,0 UV-I 0 W/m 0,4 C 0,9 C 6,3 km/h (2 Bft) 97,03 %
20.12.2017 23:00 0,9 C 3,9 C 97 % 1035,4 hPa 0,0 l/m 5,8 km/h (2 Bft) W-SW 0,00 h 0,000 mm 0,0 UV-I 0 W/m 0,5 C 0,7 C 8,4 km/h (2 Bft) 97,82 %
21.12.2017 00:00 1,0 C 3,9 C 97 % 1035,1 hPa 0,0 l/m 4,5 km/h (1 Bft) SW 0,00 h 0,000 mm 0,0 UV-I 0 W/m 0,5 C 0,9 C 6,3 km/h (2 Bft) 97,03 %
21.12.2017 01:00 1,3 C 3,9 C 94 % 1035,0 hPa 0,0 l/m 5,9 km/h (2 Bft) W-SW 0,00 h 0,000 mm 0,0 UV-I 0 W/m 0,5 C 1,0 C 8,6 km/h (2 Bft) 97,24 %
21.12.2017 02:00 1,4 C 3,9 C 93 % 1034,7 hPa 0,0 l/m 8,7 km/h (2 Bft) W-SW 0,00 h 0,000 mm 0,0 UV-I 0 W/m 0,4 C -0,7 C 12,6 km/h (3 Bft) 97,46 %
21.12.2017 03:00 1,6 C 3,9 C 91 % 1034,5 hPa 0,0 l/m 11,7 km/h (2 Bft) SW 0,00 h 0,000 mm 0,0 UV-I 0 W/m 0,2 C -2,9 C 17,2 km/h (3 Bft) 97,97 %
21.12.2017 04:00 1,6 C 3,9 C 90 % 1034,4 hPa 0,0 l/m 11,8 km/h (2 Bft) W-SW 0,00 h 0,000 mm 0,0 UV-I 0 W/m 0,1 C -2,9 C 16,8 km/h (3 Bft) 95,94 %
21.12.2017 05:00 1,7 C 3,9 C 89 % 1034,6 hPa 0,0 l/m 12,5 km/h (3 Bft) W-SW 0,00 h 0,000 mm 0,0 UV-I 0 W/m 0,1 C -3,4 C 17,1 km/h (3 Bft) 98,33 %
21.12.2017 06:00 1,7 C 3,9 C 88 % 1034,5 hPa 0,0 l/m 16,0 km/h (3 Bft) SW 0,00 h 0,000 mm 0,0 UV-I 0 W/m -0,1 C -5,4 C 22,9 km/h (4 Bft) 96,45 %
21.12.2017 07:00 1,5 C 3,9 C 89 % 1034,9 hPa 0,0 l/m 15,5 km/h (3 Bft) SW 0,00 h 0,025 mm 0,0 UV-I 5 W/m -0,2 C -5,4 C 21,7 km/h (4 Bft) 97,32 %
21.12.2017 08:00 0,9 C 3,9 C 93 % 1034,9 hPa 0,0 l/m 17,2 km/h (3 Bft) SW 0,15 h 0,025 mm 0,0 UV-I 21 W/m -0,1 C -7,0 C 24,1 km/h (4 Bft) 96,96 %
21.12.2017 09:00 1,1 C 3,9 C 94 % 1034,8 hPa 0,4 l/m 17,0 km/h (3 Bft) SW 0,00 h 0,025 mm 0,0 UV-I 48 W/m 0,2 C -6,7 C 23,9 km/h (4 Bft) 98,69 %
21.12.2017 10:00 1,7 C 3,9 C 93 % 1034,6 hPa 0,0 l/m 18,7 km/h (3 Bft) W-SW 0,00 h 0,025 mm 0,0 UV-I 83 W/m 0,6 C -6,8 C 26,7 km/h (4 Bft) 96,67 %
21.12.2017 11:00 2,4 C 3,9 C 89 % 1034,1 hPa 0,0 l/m 17,1 km/h (3 Bft) W-SW 0,00 h 0,051 mm 0,0 UV-I 53 W/m 0,8 C -5,1 C 24,2 km/h (4 Bft) 98,19 %
21.12.2017 12:00 2,9 C 3,9 C 87 % 1033,5 hPa 0,0 l/m 15,5 km/h (3 Bft) W-SW 0,00 h 0,025 mm 0,0 UV-I 46 W/m 0,9 C -3,6 C 21,4 km/h (4 Bft) 97,54 %
21.12.2017 13:00 3,4 C 3,9 C 85 % 1032,8 hPa 0,0 l/m 11,4 km/h (2 Bft) W-SW 0,00 h 0,025 mm 0,0 UV-I 30 W/m 1,2 C -0,4 C 16,8 km/h (3 Bft) 96,88 %
21.12.2017 14:00 3,6 C 3,9 C 87 % 1032,5 hPa 0,0 l/m 13,7 km/h (3 Bft) W-SW 0,00 h 0,025 mm 0,0 UV-I 22 W/m 1,7 C -1,7 C 19,9 km/h (4 Bft) 96,16 %
21.12.2017 15:00 3,5 C 3,9 C 91 % 1032,3 hPa 0,0 l/m 16,9 km/h (3 Bft) W-SW 0,00 h 0,025 mm 0,0 UV-I 12 W/m 2,1 C -3,6 C 23,1 km/h (4 Bft) 97,17 %
21.12.2017 16:00 3,2 C 3,9 C 93 % 1032,3 hPa 1,0 l/m 13,6 km/h (3 Bft) W-SW 0,00 h 0,025 mm 0,0 UV-I 5 W/m 2,3 C -2,2 C 18,4 km/h (3 Bft) 97,03 %
21.12.2017 17:00 3,2 C 3,9 C 95 % 1032,4 hPa 1,4 l/m 15,1 km/h (3 Bft) SW 0,00 h 0,000 mm 0,0 UV-I 0 W/m 2,5 C -3,1 C 21,2 km/h (4 Bft) 96,09 %
21.12.2017 18:00 3,3 C 3,9 C 95 % 1032,5 hPa 2,2 l/m 14,1 km/h (3 Bft) W-SW 0,00 h 0,000 mm 0,0 UV-I 0 W/m 2,6 C -2,4 C 20,3 km/h (4 Bft) 98,04 %
21.12.2017 19:00 3,4 C 3,9 C 95 % 1032,8 hPa 2,2 l/m 17,0 km/h (3 Bft) SW 0,00 h 0,000 mm 0,0 UV-I 0 W/m 2,8 C -3,7 C 24,4 km/h (4 Bft) 96,45 %
21.12.2017 20:00 3,1 C 3,9 C 95 % 1033,4 hPa 1,6 l/m 15,1 km/h (3 Bft) W-SW 0,00 h 0,000 mm 0,0 UV-I 0 W/m 2,5 C -3,1 C 21,2 km/h (4 Bft) 97,61 %
21.12.2017 21:00 2,8 C 3,9 C 96 % 1034,0 hPa 1,4 l/m 14,7 km/h (3 Bft) W-SW 0,00 h 0,000 mm 0,0 UV-I 0 W/m 2,2 C -3,4 C 20,8 km/h (4 Bft) 96,09 %
21.12.2017 22:00 2,8 C 3,9 C 95 % 1034,1 hPa 1,0 l/m 17,0 km/h (3 Bft) SW 0,00 h 0,000 mm 0,0 UV-I 0 W/m 2,1 C -4,5 C 23,6 km/h (4 Bft) 98,19 %
21.12.2017 23:00 2,9 C 3,9 C 95 % 1034,1 hPa 0,4 l/m 18,8 km/h (3 Bft) SW 0,00 h 0,000 mm 0,0 UV-I 0 W/m 2,2 C -5,3 C 26,0 km/h (4 Bft) 95,80 %
22.12.2017 00:00 3,1 C 3,9 C 95 % 1033,9 hPa 0,8 l/m 19,9 km/h (4 Bft) SW 0,00 h 0,000 mm 0,0 UV-I 0 W/m 2,4 C -5,5 C 27,3 km/h (4 Bft) 94,20 %
22.12.2017 01:00 3,4 C 3,9 C 95 % 1033,6 hPa 0,0 l/m 18,7 km/h (3 Bft) W-SW 0,00 h 0,000 mm 0,0 UV-I 0 W/m 2,7 C -4,5 C 25,8 km/h (4 Bft) 96,81 %
22.12.2017 02:00 3,7 C 3,9 C 96 % 1033,5 hPa 0,2 l/m 16,4 km/h (3 Bft) SW 0,00 h 0,000 mm 0,0 UV-I 0 W/m 3,0 C -3,2 C 23,0 km/h (4 Bft) 97,68 %
22.12.2017 03:00 3,9 C 3,9 C 96 % 1033,5 hPa 0,0 l/m 14,4 km/h (3 Bft) W-SW 0,00 h 0,000 mm 0,0 UV-I 0 W/m 3,3 C -1,9 C 20,1 km/h (4 Bft) 94,42 %
22.12.2017 04:00 4,0 C 3,9 C 97 % 1033,4 hPa 0,0 l/m 12,4 km/h (3 Bft) SW 0,00 h 0,000 mm 0,0 UV-I 0 W/m 3,6 C -0,6 C 17,9 km/h (3 Bft) 97,82 %
22.12.2017 05:00 4,1 C 3,9 C 97 % 1033,1 hPa 0,0 l/m 11,6 km/h (2 Bft) SW 0,00 h 0,000 mm 0,0 UV-I 0 W/m 3,7 C 0,1 C 16,4 km/h (3 Bft) 96,96 %
22.12.2017 06:00 4,2 C 3,9 C 97 % 1032,8 hPa 0,2 l/m 12,1 km/h (2 Bft) SW 0,00 h 0,000 mm 0,0 UV-I 0 W/m 3,8 C -0,2 C 17,2 km/h (3 Bft) 97,17 %
22.12.2017 07:00 4,4 C 3,9 C 96 % 1032,9 hPa 0,0 l/m 9,9 km/h (2 Bft) SW 0,00 h 0,000 mm 0,0 UV-I 5 W/m 3,8 C 1,5 C 14,5 km/h (3 Bft) 96,96 %
22.12.2017 08:00 4,6 C 3,9 C 96 % 1033,0 hPa 0,0 l/m 8,2 km/h (2 Bft) W-SW 0,00 h 0,000 mm 0,0 UV-I 12 W/m 4,0 C 3,1 C 11,7 km/h (2 Bft) 97,46 %
22.12.2017 09:00 4,8 C 3,9 C 96 % 1033,1 hPa 0,0 l/m 8,7 km/h (2 Bft) SW 0,00 h 0,000 mm 0,0 UV-I 23 W/m 4,2 C 2,8 C 12,5 km/h (3 Bft) 96,59 %
22.12.2017 10:00 5,0 C 3,9 C 95 % 1032,9 hPa 0,0 l/m 6,7 km/h (2 Bft) SW 0,00 h 0,000 mm 0,0 UV-I 31 W/m 4,4 C 4,5 C 10,0 km/h (2 Bft) 96,66 %
22.12.2017 11:00 5,3 C 3,9 C 95 % 1032,3 hPa 0,0 l/m 7,5 km/h (2 Bft) SW 0,00 h 0,025 mm 0,0 UV-I 31 W/m 4,6 C 4,2 C 11,3 km/h (2 Bft) 98,04 %
22.12.2017 12:00 5,7 C 3,9 C 94 % 1031,7 hPa 0,0 l/m 8,8 km/h (2 Bft) W-SW 0,00 h 0,025 mm 0,0 UV-I 54 W/m 4,8 C 3,8 C 12,4 km/h (3 Bft) 96,66 %
22.12.2017 13:00 5,9 C 3,9 C 94 % 1031,3 hPa 0,0 l/m 10,0 km/h (2 Bft) W-SW 0,00 h 0,025 mm 0,0 UV-I 54 W/m 5,0 C 3,2 C 14,4 km/h (3 Bft) 97,75 %
22.12.2017 14:00 5,8 C 3,9 C 94 % 1031,2 hPa 0,0 l/m 9,1 km/h (2 Bft) W-SW 0,00 h 0,025 mm 0,0 UV-I 26 W/m 4,9 C 3,7 C 13,0 km/h (3 Bft) 96,30 %
22.12.2017 15:00 5,8 C 3,9 C 94 % 1031,2 hPa 0,0 l/m 7,2 km/h (2 Bft) W-SW 0,00 h 0,025 mm 0,0 UV-I 12 W/m 4,9 C 4,8 C 10,7 km/h (2 Bft) 98,26 %
22.12.2017 16:00 5,7 C 3,9 C 95 % 1031,3 hPa 0,0 l/m 6,6 km/h (2 Bft) W-SW 0,00 h 0,000 mm 0,0 UV-I 5 W/m 4,9 C 5,2 C 9,5 km/h (2 Bft) 96,38 %
22.12.2017 17:00 5,6 C 3,9 C 95 % 1031,5 hPa 0,0 l/m 8,0 km/h (2 Bft) W-SW 0,00 h 0,000 mm 0,0 UV-I 0 W/m 4,9 C 4,4 C 11,6 km/h (2 Bft) 97,75 %
22.12.2017 18:00 5,4 C 3,9 C 96 % 1031,7 hPa 0,0 l/m 9,8 km/h (2 Bft) SW 0,00 h 0,000 mm 0,0 UV-I 0 W/m 4,8 C 2,7 C 14,1 km/h (3 Bft) 96,45 %
22.12.2017 19:00 5,4 C 3,9 C 96 % 1032,0 hPa 0,0 l/m 7,4 km/h (2 Bft) W-SW 0,00 h 0,000 mm 0,0 UV-I 0 W/m 4,8 C 4,5 C 10,7 km/h (2 Bft) 97,32 %
22.12.2017 20:00 5,5 C 3,9 C 96 % 1032,6 hPa 0,0 l/m 5,4 km/h (1 Bft) W 0,00 h 0,000 mm 0,0 UV-I 0 W/m 4,9 C 5,3 C 7,8 km/h (2 Bft) 95,94 %
22.12.2017 21:00 5,7 C 3,9 C 95 % 1033,0 hPa 0,0 l/m 7,8 km/h (2 Bft) W-SW 0,00 h 0,000 mm 0,0 UV-I 0 W/m 5,0 C 4,4 C 11,1 km/h (2 Bft) 97,46 %
22.12.2017 22:00 5,4 C 3,9 C 96 % 1033,2 hPa 0,0 l/m 5,0 km/h (1 Bft) S-SW 0,00 h 0,000 mm 0,0 UV-I 0 W/m 4,8 C 5,4 C 7,1 km/h (2 Bft) 97,68 %
22.12.2017 23:00 5,3 C 3,9 C 95 % 1033,4 hPa 0,0 l/m 4,5 km/h (1 Bft) SW 0,00 h 0,000 mm 0,0 UV-I 0 W/m 4,6 C 5,2 C 6,5 km/h (2 Bft) 97,10 %
23.12.2017 00:00 5,2 C 3,9 C 95 % 1033,4 hPa 0,0 l/m 6,1 km/h (2 Bft) W-SW 0,00 h 0,000 mm 0,0 UV-I 0 W/m 4,5 C 5,0 C 8,7 km/h (2 Bft) 96,52 %
23.12.2017 01:00 5,1 C 3,9 C 95 % 1033,4 hPa 0,0 l/m 6,9 km/h (2 Bft) W-SW 0,00 h 0,000 mm 0,0 UV-I 0 W/m 4,4 C 4,6 C 9,7 km/h (2 Bft) 97,90 %
23.12.2017 02:00 4,9 C 3,9 C 95 % 1033,2 hPa 0,0 l/m 8,0 km/h (2 Bft) SW 0,00 h 0,000 mm 0,0 UV-I 0 W/m 4,1 C 3,6 C 11,2 km/h (2 Bft) 97,46 %
23.12.2017 03:00 5,2 C 3,9 C 92 % 1032,8 hPa 0,0 l/m 12,6 km/h (3 Bft) W-SW 0,00 h 0,000 mm 0,0 UV-I 0 W/m 4,0 C 0,8 C 18,4 km/h (3 Bft) 96,88 %
23.12.2017 04:00 5,3 C 3,9 C 91 % 1032,2 hPa 0,0 l/m 12,8 km/h (3 Bft) W-SW 0,00 h 0,000 mm 0,0 UV-I 0 W/m 3,9 C 0,7 C 17,4 km/h (3 Bft) 97,54 %
23.12.2017 05:00 5,1 C 3,9 C 92 % 1032,0 hPa 0,0 l/m 11,1 km/h (2 Bft) SW 0,00 h 0,025 mm 0,0 UV-I 0 W/m 3,9 C 1,6 C 15,9 km/h (3 Bft) 97,03 %
23.12.2017 06:00 5,4 C 3,9 C 91 % 1032,3 hPa 0,0 l/m 12,0 km/h (2 Bft) W-SW 0,00 h 0,000 mm 0,0 UV-I 0 W/m 4,1 C 1,6 C 17,5 km/h (3 Bft) 97,03 %
23.12.2017 07:00 5,8 C 3,9 C 92 % 1032,0 hPa 0,0 l/m 13,1 km/h (3 Bft) W-SW 0,00 h 0,000 mm 0,0 UV-I 0 W/m 4,6 C 1,2 C 19,5 km/h (3 Bft) 96,95 %
23.12.2017 08:00 5,9 C 3,9 C 91 % 1032,2 hPa 0,0 l/m 10,8 km/h (2 Bft) W-SW 0,00 h 0,000 mm 0,0 UV-I 7 W/m 4,6 C 2,7 C 16,0 km/h (3 Bft) 98,11 %
23.12.2017 09:00 6,3 C 3,9 C 92 % 1032,3 hPa 0,0 l/m 13,1 km/h (3 Bft) W-SW 0,00 h 0,000 mm 0,0 UV-I 31 W/m 5,1 C 1,9 C 18,7 km/h (3 Bft) 96,67 %
23.12.2017 10:00 6,8 C 3,9 C 91 % 1032,5 hPa 0,0 l/m 12,3 km/h (3 Bft) W-SW 0,00 h 0,025 mm 0,0 UV-I 45 W/m 5,4 C 2,8 C 17,4 km/h (3 Bft) 97,39 %
23.12.2017 11:00 7,2 C 3,9 C 89 % 1032,1 hPa 0,0 l/m 14,5 km/h (3 Bft) W-SW 0,00 h 0,025 mm 0,0 UV-I 60 W/m 5,5 C 2,1 C 20,7 km/h (4 Bft) 97,46 %
23.12.2017 12:00 7,6 C 3,9 C 86 % 1031,4 hPa 0,0 l/m 20,1 km/h (4 Bft) W 0,23 h 0,051 mm 0,5 UV-I 139 W/m 5,4 C 0,3 C 28,4 km/h (4 Bft) 97,82 %
23.12.2017 13:00 7,9 C 3,9 C 83 % 1031,2 hPa 0,0 l/m 18,5 km/h (3 Bft) W-SW 0,00 h 0,076 mm 0,0 UV-I 99 W/m 5,1 C 1,2 C 26,7 km/h (4 Bft) 96,16 %
23.12.2017 14:00 7,7 C 3,9 C 84 % 1030,9 hPa 0,0 l/m 17,2 km/h (3 Bft) W-SW 0,00 h 0,076 mm 0,0 UV-I 29 W/m 5,1 C 1,6 C 24,0 km/h (4 Bft) 97,32 %
23.12.2017 15:00 7,7 C 3,9 C 81 % 1030,7 hPa 0,0 l/m 19,1 km/h (3 Bft) W-SW 0,00 h 0,051 mm 0,0 UV-I 18 W/m 4,7 C 0,8 C 27,0 km/h (4 Bft) 96,96 %
23.12.2017 16:00 7,6 C 3,9 C 82 % 1030,6 hPa 0,0 l/m 17,4 km/h (3 Bft) SW 0,00 h 0,051 mm 0,0 UV-I 6 W/m 4,7 C 1,2 C 24,9 km/h (4 Bft) 97,82 %
23.12.2017 17:00 7,3 C 3,9 C 85 % 1030,4 hPa 0,0 l/m 19,4 km/h (3 Bft) SW 0,00 h 0,025 mm 0,0 UV-I 0 W/m 4,9 C 0,0 C 26,7 km/h (4 Bft) 96,38 %
23.12.2017 18:00 7,3 C 3,9 C 84 % 1030,2 hPa 0,0 l/m 22,1 km/h (4 Bft) W-SW 0,00 h 0,025 mm 0,0 UV-I 0 W/m 4,8 C -0,9 C 31,9 km/h (5 Bft) 97,32 %
23.12.2017 19:00 7,2 C 3,9 C 83 % 1030,4 hPa 0,0 l/m 23,1 km/h (4 Bft) SW 0,00 h 0,025 mm 0,0 UV-I 0 W/m 4,6 C -1,3 C 32,8 km/h (5 Bft) 96,67 %
23.12.2017 20:00 7,0 C 3,9 C 83 % 1030,7 hPa 0,0 l/m 20,6 km/h (4 Bft) SW 0,00 h 0,051 mm 0,0 UV-I 0 W/m 4,4 C -0,7 C 28,5 km/h (4 Bft) 97,68 %
23.12.2017 21:00 7,0 C 3,9 C 83 % 1030,5 hPa 0,0 l/m 23,2 km/h (4 Bft) W-SW 0,00 h 0,025 mm 0,0 UV-I 0 W/m 4,3 C -1,6 C 32,7 km/h (5 Bft) 95,72 %
23.12.2017 22:00 6,8 C 3,9 C 84 % 1030,6 hPa 0,0 l/m 19,2 km/h (3 Bft) W-SW 0,00 h 0,051 mm 0,0 UV-I 0 W/m 4,3 C -0,5 C 26,5 km/h (4 Bft) 96,59 %
23.12.2017 23:00 6,7 C 3,9 C 84 % 1030,6 hPa 0,0 l/m 20,6 km/h (4 Bft) W-SW 0,00 h 0,025 mm 0,0 UV-I 0 W/m 4,3 C -1,1 C 28,6 km/h (4 Bft) 96,52 %
24.12.2017 00:00 6,8 C 3,9 C 83 % 1030,4 hPa 0,0 l/m 21,1 km/h (4 Bft) W-SW 0,00 h 0,025 mm 0,0 UV-I 0 W/m 4,1 C -1,2 C 29,7 km/h (5 Bft) 97,83 %
24.12.2017 01:00 6,5 C 3,9 C 83 % 1030,2 hPa 0,0 l/m 17,3 km/h (3 Bft) W-SW 0,00 h 0,025 mm 0,0 UV-I 0 W/m 4,0 C 0,0 C 25,1 km/h (4 Bft) 96,16 %
24.12.2017 02:00 6,2 C 3,9 C 85 % 1030,0 hPa 0,0 l/m 19,7 km/h (3 Bft) W-SW 0,00 h 0,025 mm 0,0 UV-I 0 W/m 3,8 C -1,4 C 28,1 km/h (4 Bft) 98,48 %
24.12.2017 03:00 5,8 C 3,9 C 86 % 1029,7 hPa 0,0 l/m 19,4 km/h (3 Bft) W-SW 0,00 h 0,025 mm 0,0 UV-I 0 W/m 3,7 C -1,8 C 26,5 km/h (4 Bft) 96,16 %
24.12.2017 04:00 5,3 C 3,9 C 88 % 1029,8 hPa 0,0 l/m 11,1 km/h (2 Bft) SW 0,00 h 0,025 mm 0,0 UV-I 0 W/m 3,4 C 1,9 C 15,7 km/h (3 Bft) 97,75 %
24.12.2017 05:00 5,3 C 3,9 C 88 % 1030,0 hPa 0,0 l/m 11,0 km/h (2 Bft) W-SW 0,00 h 0,025 mm 0,0 UV-I 0 W/m 3,5 C 1,9 C 15,6 km/h (3 Bft) 96,67 %
24.12.2017 06:00 4,9 C 3,9 C 88 % 1029,5 hPa 0,0 l/m 15,4 km/h (3 Bft) SW 0,00 h 0,025 mm 0,0 UV-I 0 W/m 3,1 C -1,2 C 21,0 km/h (4 Bft) 98,19 %
24.12.2017 07:00 4,7 C 3,9 C 88 % 1029,1 hPa 0,0 l/m 14,5 km/h (3 Bft) SW 0,00 h 0,025 mm 0,0 UV-I 5 W/m 2,9 C -0,9 C 20,0 km/h (4 Bft) 96,23 %
24.12.2017 08:00 5,0 C 3,9 C 87 % 1029,2 hPa 0,0 l/m 14,1 km/h (3 Bft) W-SW 0,02 h 0,025 mm 0,0 UV-I 22 W/m 3,0 C -0,3 C 19,7 km/h (3 Bft) 96,74 %
24.12.2017 09:00 5,4 C 3,9 C 86 % 1029,2 hPa 0,0 l/m 13,9 km/h (3 Bft) W-SW 0,20 h 0,025 mm 0,0 UV-I 92 W/m 3,3 C 0,3 C 19,5 km/h (3 Bft) 96,96 %
24.12.2017 10:00 5,7 C 3,9 C 85 % 1029,1 hPa 0,0 l/m 13,0 km/h (3 Bft) W 0,33 h 0,051 mm 0,0 UV-I 131 W/m 3,4 C 1,1 C 18,9 km/h (3 Bft) 97,39 %
24.12.2017 11:00 5,7 C 3,9 C 83 % 1028,4 hPa 0,0 l/m 15,1 km/h (3 Bft) W 0,37 h 0,076 mm 0,6 UV-I 206 W/m 3,1 C 0,2 C 22,8 km/h (4 Bft) 96,01 %
24.12.2017 12:00 6,6 C 3,9 C 81 % 1027,7 hPa 0,0 l/m 12,7 km/h (3 Bft) W-SW 1,00 h 0,102 mm 0,7 UV-I 353 W/m 3,5 C 2,4 C 18,8 km/h (3 Bft) 97,54 %
24.12.2017 13:00 6,8 C 3,9 C 79 % 1026,9 hPa 0,0 l/m 10,1 km/h (2 Bft) W 1,00 h 0,178 mm 0,6 UV-I 293 W/m 3,5 C 4,1 C 15,5 km/h (3 Bft) 97,61 %
24.12.2017 14:00 6,5 C 3,9 C 82 % 1026,5 hPa 0,0 l/m 7,2 km/h (2 Bft) W-SW 1,00 h 0,152 mm 0,0 UV-I 187 W/m 3,6 C 5,4 C 11,1 km/h (2 Bft) 95,94 %
24.12.2017 15:00 5,6 C 3,9 C 86 % 1026,3 hPa 0,0 l/m 6,6 km/h (2 Bft) W 1,00 h 0,076 mm 0,0 UV-I 70 W/m 3,4 C 4,8 C 10,7 km/h (2 Bft) 97,46 %
24.12.2017 16:00 4,5 C 3,9 C 90 % 1026,2 hPa 0,0 l/m 5,7 km/h (1 Bft) W 0,03 h 0,025 mm 0,0 UV-I 10 W/m 2,9 C 4,2 C 8,9 km/h (2 Bft) 97,25 %
24.12.2017 17:00 3,6 C 3,9 C 92 % 1026,1 hPa 0,0 l/m 4,7 km/h (1 Bft) W 0,00 h 0,000 mm 0,0 UV-I 0 W/m 2,4 C 3,4 C 7,5 km/h (2 Bft) 96,67 %
24.12.2017 18:00 3,2 C 3,9 C 93 % 1026,2 hPa 0,0 l/m 8,0 km/h (2 Bft) W 0,00 h 0,000 mm 0,0 UV-I 0 W/m 2,2 C 1,7 C 11,9 km/h (2 Bft) 97,46 %
24.12.2017 19:00 2,8 C 3,9 C 94 % 1026,3 hPa 0,0 l/m 6,2 km/h (2 Bft) W 0,00 h 0,000 mm 0,0 UV-I 0 W/m 1,9 C 2,0 C 9,8 km/h (2 Bft) 96,81 %
24.12.2017 20:00 2,9 C 3,9 C 93 % 1026,0 hPa 0,0 l/m 10,7 km/h (2 Bft) W-SW 0,00 h 0,000 mm 0,0 UV-I 0 W/m 1,9 C -0,7 C 14,6 km/h (3 Bft) 97,68 %
24.12.2017 21:00 2,9 C 3,9 C 93 % 1025,9 hPa 0,0 l/m 10,7 km/h (2 Bft) W 0,00 h 0,000 mm 0,0 UV-I 0 W/m 1,9 C -0,6 C 14,9 km/h (3 Bft) 95,72 %
24.12.2017 22:00 2,7 C 3,9 C 93 % 1026,0 hPa 0,0 l/m 10,3 km/h (2 Bft) W-SW 0,00 h 0,000 mm 0,0 UV-I 0 W/m 1,6 C -0,6 C 14,1 km/h (3 Bft) 98,04 %
24.12.2017 23:00 2,8 C 3,9 C 93 % 1026,1 hPa 0,0 l/m 8,5 km/h (2 Bft) W 0,00 h 0,000 mm 0,0 UV-I 0 W/m 1,7 C 0,8 C 12,8 km/h (3 Bft) 96,30 %
Min-Datum _ 19.12.17 18.12.17 24.12.17 18.12.17 - 18.12.17 - - - - - 19.12.17 18.12.17 18.12.17 22.12.17
_ Min-Zeit 08:10 00:00 13:46 06:20 - 08:32 - - - - - 08:10 02:20 08:32 00:02
Minimum _ -5,2 C 3,9 C 78 % 1023,7 hPa - 0,0 km/h (0 Bft) - - - - - -5,9 C -11,4 C 0,0 km/h (0 Bft) 0,00 %
Max-Datum _ 23.12.17 24.12.17 18.12.17 20.12.17 21.12.17 23.12.17 - 18.12.17 24.12.17 24.12.17 24.12.17 23.12.17 24.12.17 23.12.17 18.12.17
_ Max-Zeit 12:49 23:54 22:28 20:27 18:03 19:35 - 14:33 13:00 11:39 12:25 12:31 13:45 18:42 00:02
Maximum _ 7,9 C 4,4 C 97 % 1035,6 hPa 2,2 l/m 30,6 km/h
SW (5 Bft)
- 0,07 h 0,178 mm 0,7 UV-I 436 W/m 5,7 C 7,1 C 45,1 km/h
W-SW (6 Bft)
100,00 %
Durchschnitt _ 2,2 C 3,9 C 92 % 1031,2 hPa #15,4 l/m 9,2 km/h (2 Bft) W-SW #9:05 h #2,626 mm 0,5 UV-I 68 W/m 1,0 C -0,6 C 13,2 km/h (3 Bft) 97,09 %